Theta_e
310 310 310 311 313 315 317 318 320 322 323 325 326 326 327 327 327 328 327 327 327 327 327 328 328 328 328 328 328 328 327 327 326 326 326 327 327 327 327 327 327 326 326 325 325 325 325 324 323 323 322 321 319 318 317 317 316 315 315 314 312 310 308 301 297 296 297 298 299 299 297 297 296 296 293 290 289 288 288 288 287 287 286 286 286
310 310 310 310 310 311 312 314 316 317 319 321 322 323 324 325 325 326 326 326 326 326 326 327 327 328 327 327 328 327 327 326 326 326 326 326 326 326 327 326 325 325 324 324 324 324 323 323 323 321 320 320 319 318 317 315 314 314 313 312 311 310 309 304 299 296 295 296 297 297 296 296 295 294 292 290 288 288 288 288 287 287 286 286 286
310 311 311 310 310 310 311 312 313 315 317 318 320 320 321 322 323 324 324 325 325 325 326 326 327 327 327 327 327 327 327 327 326 326 326 326 326 326 326 326 325 325 324 323 323 323 322 322 321 319 319 318 318 317 316 315 314 314 313 311 310 310 309 305 299 296 295 294 295 296 296 295 293 292 291 289 288 288 288 287 287 287 286 286 285
311 311 311 311 311 311 311 311 312 314 316 317 318 319 320 321 321 321 322 323 324 325 326 326 327 327 327 327 327 327 327 327 326 325 325 325 325 325 325 325 325 324 324 323 323 323 322 320 319 319 318 317 316 315 315 314 314 314 313 311 310 309 309 305 298 296 295 294 294 295 295 294 292 291 289 288 288 287 287 287 287 287 286 285 285
311 311 311 311 311 311 311 311 311 312 313 314 315 317 318 319 320 320 321 322 323 324 325 326 327 327 327 326 326 326 326 326 327 326 325 325 325 325 325 324 324 323 323 323 323 323 322 321 319 319 318 316 315 315 314 313 313 313 312 311 309 308 307 303 298 295 295 294 294 294 293 293 291 290 289 288 287 287 287 287 287 287 286 285 285
310 310 311 310 311 311 311 311 311 311 312 313 313 314 315 315 316 317 318 319 320 321 322 323 324 324 324 324 324 325 325 325 326 325 324 325 325 324 324 323 323 322 323 323 323 323 322 321 320 319 318 315 314 314 313 313 312 312 311 310 308 307 305 301 296 294 293 293 293 293 292 291 291 289 288 287 287 287 287 287 287 286 286 286 285
309 308 309 309 309 310 310 310 310 310 311 311 311 311 311 311 312 313 315 316 317 318 318 319 319 320 320 320 321 322 322 323 323 323 324 324 324 323 322 322 322 321 321 320 321 321 321 320 319 317 316 315 315 315 313 312 311 311 311 309 306 305 302 297 294 292 291 291 291 291 291 290 290 289 288 287 287 287 287 287 286 286 286 285 284
307 307 307 307 307 307 307 307 308 308 307 307 307 307 306 307 309 312 313 314 315 316 317 318 319 319 319 320 321 322 322 322 323 324 324 323 323 322 321 321 321 320 319 318 318 319 319 319 318 317 316 316 316 316 314 313 311 310 308 306 304 302 298 294 292 291 290 290 290 289 289 289 289 288 288 287 287 287 287 286 286 286 286 285 284
307 307 306 305 305 304 304 304 304 305 304 304 304 304 304 306 307 309 311 312 314 314 316 317 317 318 319 320 321 321 321 322 322 323 323 322 321 321 320 320 319 319 318 318 317 316 316 317 318 317 317 316 316 315 314 313 311 309 306 303 301 299 294 291 291 290 289 289 288 288 288 288 288 288 287 287 287 287 287 286 286 286 285 285 284
306 306 306 304 303 302 302 301 301 302 303 302 303 304 305 306 307 307 308 310 312 313 315 316 317 317 318 319 319 319 319 320 320 321 320 320 320 319 319 319 318 317 317 316 314 312 313 315 316 316 315 314 314 313 312 311 310 308 306 303 300 297 292 290 289 289 288 288 287 287 287 287 287 287 287 287 287 287 287 286 285 285 284 284 284
306 306 305 303 301 302 301 300 300 301 301 302 303 304 306 307 308 308 308 310 311 312 314 315 316 316 316 316 317 317 318 318 318 318 318 318 318 318 318 318 317 316 315 314 313 311 311 313 312 312 312 312 311 310 309 308 307 307 306 303 300 295 292 290 289 288 288 288 287 287 286 286 287 287 287 287 287 286 286 285 285 284 283 283 283
305 305 303 301 301 302 301 300 300 300 301 302 304 306 307 308 309 310 310 311 312 313 314 314 315 315 314 314 315 315 316 316 316 316 316 316 316 316 316 316 316 314 313 313 312 311 312 312 310 310 310 310 309 308 307 306 306 306 305 301 297 293 291 290 289 289 288 288 287 287 287 287 287 287 287 287 287 286 286 285 284 284 283 282 282
304 303 302 301 301 301 301 301 302 301 302 303 305 306 307 308 310 311 311 312 312 313 314 313 313 312 312 312 313 313 314 314 314 314 314 314 314 314 314 314 314 313 312 311 310 311 311 311 309 309 309 308 307 305 305 304 304 304 302 297 293 291 290 290 289 289 289 288 288 288 288 287 287 288 287 287 287 286 285 285 284 284 283 282 282
303 301 300 300 300 301 301 302 302 302 302 303 305 306 307 308 310 311 311 311 312 312 312 313 312 311 310 310 310 311 311 311 311 311 311 312 312 312 312 312 312 312 311 310 309 309 311 311 311 309 308 306 305 304 303 303 302 301 298 294 291 290 290 289 288 289 289 288 288 289 288 287 288 288 287 287 286 286 285 285 284 284 283 282 282
301 300 299 299 300 301 301 302 303 303 303 303 304 306 308 309 309 309 309 310 310 310 311 311 311 310 309 308 308 309 310 309 309 309 309 310 310 310 310 310 310 310 309 308 308 309 311 312 311 309 308 307 305 303 302 302 301 298 294 291 290 290 289 288 288 288 288 287 288 288 288 287 287 287 287 286 286 286 285 285 284 283 282 281 281
300 298 297 298 299 300 302 302 303 304 304 304 304 306 307 308 308 308 308 308 308 308 308 308 308 308 307 307 307 308 308 307 307 307 307 307 307 307 308 308 308 308 307 307 307 308 309 309 308 308 308 306 305 303 301 300 298 295 292 290 290 289 288 287 287 287 287 287 287 287 287 287 287 286 286 286 285 285 285 284 283 282 281 280 279
298 296 296 297 299 300 301 302 303 304 305 305 304 305 306 306 306 306 307 307 306 306 306 306 306 305 305 305 305 306 306 305 305 306 306 305 305 305 305 306 306 305 305 304 305 305 305 306 306 306 306 305 303 301 299 297 294 292 290 289 289 288 288 287 287 286 286 286 286 286 286 286 285 285 285 285 285 285 284 283 282 281 280 278 278
296 296 296 296 297 299 300 302 303 303 304 304 304 304 305 306 306 305 305 305 305 305 305 304 304 304 304 303 303 303 303 303 303 304 304 304 303 303 303 304 303 303 302 302 303 303 303 303 303 303 303 303 301 299 298 295 293 291 289 289 288 287 287 287 286 286 286 286 285 285 285 285 284 284 284 284 284 284 283 282 282 281 280 279 278
295 296 296 296 297 298 299 301 302 303 303 303 303 303 304 304 304 304 304 303 303 303 303 303 303 302 302 302 302 301 301 301 301 302 303 302 302 302 302 302 302 302 303 303 303 302 301 301 300 300 301 300 299 298 297 294 292 291 289 288 287 287 287 287 286 286 285 285 285 285 284 284 284 284 284 284 283 283 282 282 281 280 280 279 278
294 295 295 295 296 297 299 300 301 301 302 302 302 302 302 302 302 302 301 302 301 301 301 301 301 301 300 300 300 300 301 301 301 301 301 301 300 301 301 301 302 302 302 302 301 301 300 299 299 299 298 298 297 297 295 293 291 290 289 287 287 287 287 286 286 285 285 285 285 285 285 284 284 283 283 283 282 282 282 281 281 280 280 279 278
293 293 294 295 296 297 298 299 300 300 301 301 301 301 301 301 300 300 300 300 300 300 299 300 299 299 299 299 299 299 299 300 300 300 300 300 300 299 299 300 301 301 300 300 299 299 299 298 299 298 298 297 296 295 293 292 291 289 288 288 287 286 286 286 286 285 285 284 284 285 284 284 283 283 283 283 282 282 281 281 280 280 279 279 279
292 292 293 295 296 297 298 298 299 299 300 300 300 300 299 299 299 299 299 298 298 298 298 298 298 298 298 298 298 298 298 298 298 298 298 298 298 298 298 298 299 298 298 297 297 297 298 298 298 297 296 296 295 293 291 291 290 288 287 286 285 285 285 286 285 285 284 284 284 284 284 284 283 283 282 282 282 282 281 280 280 280 279 279 279
292 292 294 295 296 297 297 297 298 298 298 299 298 298 298 297 298 298 297 297 296 296 296 296 296 296 296 296 296 296 296 296 296 296 296 296 296 295 295 296 296 296 295 295 295 295 296 296 296 296 295 294 293 291 289 288 288 287 286 285 284 285 285 285 285 285 285 284 283 283 284 284 283 282 282 282 282 282 281 280 279 279 279 278 278
292 292 293 294 294 295 296 296 296 297 297 297 296 296 296 296 296 296 296 295 295 295 294 295 295 294 295 295 295 296 296 296 295 295 295 295 294 294 293 293 294 294 293 293 293 294 294 294 294 294 293 292 290 289 287 287 287 286 285 284 284 284 284 284 284 284 284 283 283 283 284 283 283 282 282 283 283 282 280 279 279 278 278 277 277
294 293 292 293 293 294 294 294 295 295 296 296 296 295 295 295 295 295 294 294 294 294 293 293 293 293 293 293 294 295 295 295 295 294 294 294 293 293 292 292 292 292 292 292 292 292 292 292 292 292 291 290 288 287 286 286 286 286 286 285 284 284 284 284 283 283 283 283 283 284 284 283 283 283 283 283 281 280 279 278 277 277 276 276 276
295 293 292 292 292 293 293 293 293 294 294 295 295 295 295 295 295 294 294 293 293 293 292 292 292 292 292 292 292 292 292 293 292 292 292 292 291 291 291 291 291 291 291 291 291 290 290 289 289 289 289 288 287 286 286 286 286 287 286 286 284 284 284 283 283 283 283 283 283 283 283 283 282 282 282 281 280 279 278 277 277 276 276 275 275
294 292 291 291 291 292 292 292 292 292 293 293 293 294 294 294 294 293 293 293 292 292 292 291 291 291 291 291 290 290 290 290 290 290 290 290 290 290 290 289 289 290 290 290 290 289 288 288 287 287 286 286 286 286 286 286 286 286 287 286 285 284 284 283 283 283 283 283 283 283 282 282 282 281 280 279 278 278 277 277 276 276 275 274 274
292 291 290 290 290 290 290 290 290 291 291 291 291 291 291 292 292 291 291 291 290 290 290 290 290 290 289 289 289 289 289 289 289 288 288 288 288 288 288 288 288 289 289 289 288 288 287 286 285 285 285 285 284 284 285 285 286 286 286 286 285 285 284 284 283 283 283 283 282 281 281 281 280 279 279 278 278 278 277 277 276 275 275 274 272
290 289 289 289 289 289 289 289 289 289 289 289 289 289 289 290 290 289 289 289 289 289 289 289 288 288 288 288 288 288 288 288 287 287 287 287 287 287 287 287 287 288 288 288 287 287 286 285 284 284 284 284 284 284 284 284 285 285 285 286 285 285 285 284 284 283 283 282 281 280 280 280 279 278 278 278 278 277 277 276 275 274 274 272 271
288 288 288 288 288 288 288 288 288 288 288 288 288 287 287 288 288 287 287 287 287 287 287 287 287 287 287 287 286 286 286 286 286 286 286 286 286 286 286 286 286 287 287 287 286 286 285 285 284 284 284 284 283 283 284 284 284 284 284 285 285 285 284 284 284 283 282 281 280 280 280 279 278 278 278 277 277 277 276 275 274 273 273 271 270
287 286 287 286 286 287 287 286 286 287 286 287 287 287 286 286 286 286 285 285 285 285 285 285 285 285 284 285 285 285 284 284 284 284 284 284 284 285 285 285 286 286 286 286 285 285 284 284 284 283 283 283 283 283 283 283 283 283 283 283 284 284 284 283 283 282 282 281 281 280 280 279 278 278 277 277 276 276 275 274 273 272 272 271 270
286 285 285 285 285 285 285 285 285 285 285 285 286 286 286 285 285 285 285 285 284 284 284 284 284 283 283 283 283 284 284 283 283 283 283 283 283 284 284 284 285 285 285 285 285 284 284 283 283 283 282 282 282 282 282 282 282 282 282 282 282 282 282 282 282 281 281 280 280 279 278 278 277 277 277 276 275 275 274 273 272 272 271 270 269
286 284 284 284 284 284 284 284 284 284 284 284 284 284 284 284 284 284 284 284 284 284 284 283 283 283 283 282 282 282 282 282 283 283 283 283 283 283 283 283 284 284 285 284 284 284 284 283 283 282 282 282 282 282 281 281 281 281 281 281 281 281 281 281 281 280 280 280 279 279 278 278 277 277 276 275 275 274 273 272 272 271 270 269 269
286 285 285 285 285 284 284 284 284 284 283 283 283 283 283 282 282 283 283 283 283 283 283 283 282 282 282 282 282 282 282 282 282 282 282 282 282 282 282 283 283 284 285 285 284 284 283 283 283 282 282 282 281 281 281 281 281 281 281 281 281 280 280 280 280 280 279 279 279 278 278 277 277 276 275 274 274 273 272 272 271 270 269 269 269
285 284 285 286 286 285 284 284 284 284 283 283 283 282 282 282 282 281 281 281 281 281 282 282 281 281 281 282 282 282 282 282 282 281 282 282 281 282 282 283 283 283 283 284 284 284 283 283 283 282 282 282 282 282 281 281 281 281 281 281 280 280 280 280 279 279 279 278 278 278 277 277 276 275 275 274 273 272 272 271 270 270 269 269 268
284 283 284 284 285 284 284 284 284 284 283 283 282 282 282 281 281 281 281 280 280 280 280 281 281 281 281 282 282 282 282 282 282 281 281 281 281 281 282 282 282 282 282 282 283 283 282 282 282 282 282 282 282 282 282 282 281 281 281 281 281 280 280 280 279 279 279 278 278 277 276 276 275 275 274 273 272 272 271 271 270 270 269 269 268
284 283 283 283 283 283 283 283 283 283 283 282 282 282 282 282 282 281 281 280 280 279 280 280 281 282 282 282 282 282 281 281 281 281 281 281 281 281 281 281 281 281 281 281 282 282 282 282 282 282 282 282 282 282 282 281 281 281 281 281 280 280 280 279 279 278 278 277 277 276 276 275 275 274 273 272 272 271 271 270 270 269 269 268 268
284 284 283 282 283 283 283 282 282 282 283 283 283 283 283 282 282 281 281 280 279 279 279 279 279 279 279 279 279 280 280 281 281 281 281 280 279 278 279 279 280 280 280 280 280 281 281 281 281 281 281 281 281 281 281 281 281 280 280 280 280 279 279 279 278 277 277 276 276 275 275 274 274 273 272 271 271 271 270 270 269 269 268 268 267
283 283 283 283 283 283 283 283 282 283 283 283 282 282 282 282 281 281 280 279 279 278 277 276 276 275 275 275 276 277 278 278 278 277 276 276 276 275 276 276 277 277 277 277 278 278 278 278 278 278 279 279 279 279 278 279 279 279 279 279 278 278 278 278 277 277 276 275 275 274 274 273 273 272 271 271 270 270 270 269 269 268 268 267 267
283 282 282 283 283 282 282 282 282 282 282 281 281 281 281 280 280 279 278 277 277 276 275 274 274 273 273 273 274 274 275 274 273 273 273 273 273 273 273 274 274 274 274 274 274 275 275 275 275 275 276 276 276 276 276 276 276 276 276 277 277 277 277 276 276 275 275 275 274 274 273 273 272 271 271 270 270 269 269 269 268 268 267 267 267
282 282 281 282 282 282 281 281 281 281 280 280 280 279 279 278 277 277 276 275 274 274 273 273 273 273 272 273 273 273 273 272 272 272 272 272 271 271 272 272 272 272 272 272 272 272 272 272 273 273 273 273 273 273 273 274 274 274 274 274 274 274 275 275 274 274 274 273 273 273 272 272 271 270 270 269 269 269 268 268 268 267 267 267 266
281 281 281 280 280 280 280 280 279 278 278 278 277 277 276 276 275 274 274 273 273 273 273 272 273 272 272 272 272 272 272 272 272 271 271 271 271 271 270 270 270 270 270 270 270 270 270 271 271 271 271 271 271 271 271 271 271 271 271 272 272 272 272 272 272 272 272 272 271 271 271 271 270 269 269 269 268 268 267 267 267 266 266 266 266
280 280 280 279 279 279 278 277 277 277 276 276 275 274 274 273 273 273 273 272 272 272 272 272 272 272 272 272 271 271 271 271 270 270 270 270 270 269 269 269 269 269 269 269 269 269 269 269 269 269 269 269 269 269 269 269 269 269 269 270 270 270 270 270 270 270 270 270 270 270 270 269 269 268 268 268 267 267 267 266 266 266 266 265 265
279 279 278 278 277 277 276 275 275 275 274 274 273 273 273 273 272 272 272 272 272 271 271 271 271 271 271 271 270 270 270 269 269 269 268 268 268 268 268 268 268 268 268 268 268 268 268 268 268 268 268 268 268 268 268 268 268 268 268 268 268 268 268 268 268 268 268 268 268 268 268 268 268 268 267 267 266 266 266 266 265 265 265 265 264
278 277 277 276 276 275 274 274 274 274 273 273 273 272 272 272 272 271 271 271 271 270 270 270 269 269 269 269 268 268 268 268 267 267 267 267 267 267 267 267 267 267 267 267 267 267 267 267 267 267 267 268 268 268 268 268 267 267 267 266 266 266 267 267 267 267 267 267 267 267 267 267 267 267 267 266 266 266 265 265 265 265 264 264 264
276 276 275 275 274 274 274 273 273 273 273 273 272 272 271 271 271 270 270 269 269 268 268 268 268 267 267 267 267 267 267 266 266 266 266 266 266 266 266 266 266 266 266 266 266 266 266 266 266 266 267 267 267 267 267 267 267 267 266 266 266 266 266 266 266 266 266 266 266 266 266 266 266 266 266 266 265 265 265 265 264 264 264 264 264
275 275 274 274 274 273 273 272 272 272 272 271 271 270 270 269 269 269 268 268 267 267 267 267 266 266 266 266 266 266 266 265 265 265 265 265 265 265 265 265 265 266 266 266 266 266 266 266 266 266 266 266 266 266 266 267 267 267 267 266 266 266 266 266 266 266 266 266 266 265 265 265 266 265 265 265 265 264 264 264 264 264 264 263 263
274 274 273 273 273 272 272 271 271 271 270 270 269 269 268 268 268 267 267 267 267 266 266 266 266 265 265 265 265 265 265 265 265 264 264 264 264 265 265 265 265 266 266 266 266 266 266 266 266 266 266 266 265 265 266 266 266 267 267 266 266 266 266 267 267 267 267 267 266 265 265 265 265 265 265 265 264 264 264 264 263 263 263 263 263
272 272 272 272 271 271 271 270 270 270 269 269 268 268 267 267 267 266 266 266 266 265 265 265 265 265 265 265 265 265 264 264 264 264 264 264 265 265 265 265 265 265 265 265 265 265 265 265 265 265 265 265 265 265 265 266 266 266 266 266 266 266 266 266 267 267 267 266 266 265 265 265 265 265 264 264 264 264 264 263 263 263 262 262 262
271 271 271 270 270 270 269 269 269 268 267 267 267 267 266 266 266 265 265 265 265 265 265 264 264 264 264 264 264 264 264 264 264 264 264 264 264 264 264 264 264 264 264 264 264 264 264 264 264 264 264 265 265 265 265 265 266 266 266 266 266 266 266 266 266 266 266 266 265 264 264 264 264 264 264 264 264 263 263 263 263 262 262 262 262
270 270 270 269 269 269 268 267 267 267 266 266 266 265 265 265 265 265 264 265 264 264 265 265 264 264 264 264 264 264 264 264 264 264 264 264 264 264 264 264 264 264 264 264 264 264 264 264 264 264 264 264 265 265 265 265 265 265 266 265 265 266 266 266 266 265 265 265 264 264 263 263 264 264 264 263 263 263 263 262 262 262 262 261 261
Wind_Speed
20 22 23 25 28 30 30 30 29 29 29 30 31 31 31 31 32 32 32 32 32 32 32 32 32 33 34 35 37 37 37 36 35 35 36 37 39 40 40 39 40 41 41 40 40 39 39 38 36 37 37 36 34 32 31 30 30 29 29 31 33 33 31 27 15 9 14 20 25 25 22 21 21 18 17 15 14 14 14 13 12 11 10 9 8
18 18 19 21 23 25 26 26 26 27 27 28 29 29 29 28 27 27 28 29 29 30 31 31 31 32 33 34 35 35 35 34 33 34 35 37 38 39 39 38 37 36 36 37 38 38 37 37 37 37 37 36 35 32 31 31 30 30 30 31 33 33 32 29 22 15 14 18 22 23 22 22 20 18 18 17 16 16 16 14 12 12 11 10 9
15 15 17 18 19 20 22 23 23 24 25 26 27 27 27 27 26 26 25 25 25 27 28 29 30 31 33 34 34 35 35 34 33 33 34 36 37 38 39 39 38 37 35 34 35 35 34 35 36 37 35 33 34 34 34 34 32 31 31 32 33 33 33 31 26 21 19 20 22 24 23 22 21 19 19 18 18 18 17 14 12 12 12 11 10
13 14 15 16 17 18 19 20 21 22 23 23 24 24 25 25 25 25 24 24 23 24 25 27 28 30 31 33 34 34 34 33 33 34 34 35 36 37 38 39 41 41 39 37 36 35 34 35 35 34 34 33 34 35 34 34 33 32 32 33 34 33 34 33 28 23 22 22 22 24 24 22 20 20 20 19 19 18 16 14 13 12 12 12 11
12 13 14 15 16 16 17 18 19 20 20 21 22 23 23 23 23 23 23 22 22 21 22 22 24 27 29 31 32 32 32 33 32 30 31 34 37 38 38 38 39 40 41 40 39 38 38 38 36 35 36 36 37 37 37 35 35 34 34 34 35 33 33 33 30 25 24 24 24 24 23 21 20 19 20 20 19 18 17 15 13 12 13 13 12
12 13 14 15 16 16 17 17 17 17 18 19 20 21 22 23 23 23 23 23 23 22 22 22 23 25 27 28 29 29 30 30 30 29 31 35 37 38 38 39 39 40 40 41 42 42 42 41 40 40 40 40 40 39 39 38 37 36 35 35 35 34 32 32 30 27 25 25 24 23 22 22 21 19 20 20 18 17 16 15 13 13 13 14 14
11 12 14 15 17 17 16 16 16 16 17 18 19 20 20 19 18 18 19 20 21 21 22 23 24 25 27 29 29 28 28 29 30 31 33 35 36 37 38 38 39 40 39 40 42 43 44 43 43 43 42 41 40 40 39 38 37 36 37 36 35 34 32 32 31 28 25 23 22 21 21 21 20 20 19 18 16 16 16 16 16 16 14 15 16
11 12 13 13 14 13 13 13 14 14 14 15 17 17 17 16 15 15 15 16 17 19 20 21 23 25 27 28 29 30 31 31 32 32 33 34 35 36 37 38 39 40 39 38 39 41 43 43 43 42 41 40 40 40 40 39 37 37 37 36 35 34 33 32 31 28 26 23 21 19 19 19 20 19 17 16 17 19 20 19 19 18 15 16 16
10 11 12 11 10 10 10 11 10 10 11 11 12 12 12 12 13 14 15 15 16 16 18 19 21 23 25 25 26 28 29 30 31 32 33 34 34 35 37 38 39 40 39 39 39 40 41 42 42 41 41 41 40 39 39 37 36 36 37 36 35 34 34 33 30 28 25 22 19 18 17 19 21 21 20 22 23 22 20 20 20 18 17 17 16
9 10 10 10 9 8 8 9 9 8 9 9 9 9 9 9 10 11 13 14 15 15 17 18 19 21 22 23 25 26 27 29 30 31 32 32 33 35 36 38 38 38 38 38 38 39 39 39 40 40 39 38 37 36 36 35 34 35 36 37 37 37 36 33 30 28 26 23 21 21 19 20 24 26 27 27 26 22 19 19 19 18 16 16 14
8 9 10 9 8 7 7 8 8 7 7 7 6 6 7 7 8 9 10 11 13 14 16 17 18 19 20 22 24 25 26 27 28 29 30 30 32 34 35 37 38 38 38 38 38 38 37 36 36 36 35 34 34 34 34 33 33 33 33 35 38 40 38 36 32 30 28 26 24 25 23 24 28 30 29 27 25 23 22 20 19 17 15 12 10
7 8 9 8 5 5 7 8 8 6 5 5 5 5 5 6 6 8 8 9 10 12 13 15 16 17 19 20 22 23 24 25 26 27 28 28 30 32 34 35 36 37 37 37 38 37 35 34 34 34 33 33 33 33 33 33 32 32 32 34 38 39 38 37 36 33 32 30 28 28 29 29 29 29 28 27 24 23 22 20 20 19 16 14 12
7 8 7 5 3 4 6 6 6 6 5 4 4 5 4 5 6 7 7 8 9 10 11 13 13 14 16 18 20 21 22 23 23 24 25 26 27 30 32 34 34 35 35 35 36 36 35 34 33 33 32 32 32 32 33 33 31 30 32 34 37 37 36 35 34 32 33 34 32 32 33 31 28 26 26 26 24 22 21 21 21 20 18 18 17
6 5 4 2 2 3 4 4 4 5 4 3 4 4 4 5 5 6 6 7 8 9 10 11 12 13 14 15 17 18 19 20 21 21 22 23 25 27 29 31 33 33 34 34 35 35 33 32 32 32 32 32 32 32 33 32 31 31 32 34 35 36 36 35 32 30 31 32 31 30 30 28 26 24 23 23 23 21 20 21 21 20 19 18 19
4 3 2 1 1 1 2 2 3 3 3 4 4 3 4 5 5 6 7 8 8 8 9 11 12 13 14 14 15 16 17 17 18 19 20 20 22 24 26 28 30 30 31 32 33 33 32 31 32 32 32 32 33 33 33 32 31 31 33 35 34 35 36 35 33 32 31 30 29 28 27 24 23 22 21 21 21 20 19 19 19 18 18 17 18
2 2 2 2 2 1 1 2 2 2 2 3 3 4 4 5 6 7 8 8 9 9 9 10 11 12 13 13 14 16 16 16 16 17 17 17 18 21 24 26 27 29 29 30 31 32 32 31 32 32 31 31 32 32 33 32 31 32 34 34 34 34 35 34 34 33 31 28 27 26 25 23 22 22 21 19 20 19 18 19 18 17 16 15 18
2 2 2 3 3 2 2 2 1 2 2 2 3 4 5 6 7 7 8 8 9 10 10 10 11 11 12 12 13 14 15 15 15 15 15 14 16 20 23 24 24 25 26 26 27 28 29 30 30 30 30 30 30 30 31 31 32 33 34 34 33 33 34 34 33 32 30 28 27 25 24 23 22 21 21 19 19 20 19 20 20 19 16 13 13
4 4 3 3 3 3 2 2 1 1 2 3 4 4 5 6 7 7 8 8 8 9 10 10 10 11 11 11 12 12 13 14 13 13 13 13 14 18 20 21 21 21 20 21 22 23 25 27 28 28 28 28 27 28 31 32 33 35 36 35 34 34 35 34 33 31 30 28 26 24 23 23 22 22 21 20 21 22 22 22 20 18 18 16 13
5 5 3 3 4 3 3 2 1 1 1 3 3 4 4 5 6 7 8 8 8 8 9 10 10 11 11 11 11 11 12 12 11 11 10 11 12 16 18 19 19 19 19 20 21 22 24 25 25 26 26 26 26 28 31 33 35 37 37 35 34 35 36 35 33 32 30 28 27 25 24 24 24 23 22 21 22 23 23 22 21 19 19 19 16
5 5 4 4 4 4 3 3 2 2 1 2 2 3 4 4 5 6 7 7 8 8 9 10 10 11 11 11 10 11 11 11 11 10 9 8 10 13 16 18 19 20 20 21 21 22 24 24 25 25 25 25 26 28 31 33 36 37 36 36 36 36 35 33 31 31 30 28 27 26 25 25 24 24 23 23 23 24 24 23 23 22 21 20 18
4 6 6 5 5 5 4 3 3 3 2 2 3 3 3 3 4 5 5 6 7 8 9 9 10 11 11 11 11 11 11 11 11 11 10 9 9 11 14 17 19 19 20 20 21 23 24 24 25 25 25 25 26 27 30 33 36 37 38 38 37 34 30 30 30 29 28 27 26 25 24 25 25 25 26 26 26 26 26 25 25 23 22 21 19
5 7 8 7 6 5 5 4 3 3 3 3 3 3 3 3 4 4 4 5 5 6 8 8 9 11 11 11 12 12 12 12 12 11 10 10 9 11 13 16 18 19 20 20 22 23 24 24 25 24 24 25 26 27 29 32 35 37 37 35 31 27 25 26 27 27 27 27 26 26 25 25 26 28 28 28 27 27 27 26 25 23 23 23 21
6 9 9 8 7 6 5 5 4 4 4 5 5 5 4 4 4 4 4 4 5 6 7 8 9 10 11 12 12 13 13 14 14 14 13 12 11 11 12 15 17 19 19 20 21 22 23 23 24 23 24 25 26 27 29 31 33 35 34 31 27 25 24 24 24 26 28 27 26 26 26 28 29 29 29 28 27 27 26 26 25 23 23 22 22
8 10 10 9 8 7 6 6 5 5 6 6 6 7 6 6 6 6 5 5 5 6 7 8 8 10 11 12 13 13 13 14 14 15 15 14 14 13 12 12 15 18 19 19 19 20 20 21 22 22 23 24 24 25 27 28 30 32 33 31 29 27 25 25 25 26 27 26 25 27 28 29 29 29 28 27 26 25 25 24 24 23 23 22 22
9 11 10 9 9 7 6 6 5 5 6 6 6 7 7 7 7 7 6 6 6 6 6 7 8 9 10 11 11 12 11 12 13 13 13 13 13 13 12 11 12 15 18 18 18 18 18 19 19 20 20 21 22 23 24 26 27 29 30 30 29 27 26 26 25 24 25 25 26 28 29 28 28 27 26 25 24 23 23 23 23 22 23 23 23
12 12 11 10 9 8 8 7 6 6 6 5 6 6 6 6 7 6 6 6 6 6 6 6 6 7 8 9 10 11 11 11 12 13 13 12 11 11 10 9 9 12 15 17 17 16 16 16 16 17 17 18 20 22 23 23 24 25 25 25 25 25 25 24 24 24 26 27 28 28 28 26 25 25 24 23 22 22 22 23 22 23 24 24 23
14 14 12 11 11 10 10 9 8 8 7 7 7 7 6 6 6 6 6 6 6 6 6 5 5 6 8 9 10 10 11 12 13 13 13 13 12 11 10 9 9 10 13 15 15 15 14 14 13 14 14 15 17 20 20 19 20 21 22 22 22 24 24 24 24 26 27 27 27 26 25 23 22 22 21 20 21 21 22 22 23 24 24 23 22
16 15 14 12 11 11 11 11 10 9 8 8 8 8 8 7 7 7 7 6 6 6 6 5 5 6 7 8 9 10 11 11 13 13 13 13 12 12 11 10 9 10 12 14 13 12 12 11 10 10 11 12 14 16 17 17 17 18 20 21 21 23 23 23 25 26 27 27 25 24 22 21 20 20 19 19 21 22 22 22 24 25 24 22 21
17 17 15 14 12 11 10 10 10 8 8 7 7 7 6 5 5 5 5 5 5 5 5 6 6 7 7 9 10 11 12 12 12 13 13 12 11 11 11 10 9 9 10 12 12 11 11 10 10 10 11 12 13 14 16 17 17 17 19 21 22 23 24 25 26 27 26 25 24 22 20 19 19 19 19 20 22 23 23 23 24 25 23 22 22
19 17 15 14 13 11 10 10 9 8 8 7 7 7 7 6 6 6 6 5 5 5 5 6 7 8 9 9 9 11 12 13 13 13 13 12 11 11 10 10 9 8 8 10 11 11 12 12 12 12 13 13 14 16 17 18 19 20 22 23 24 25 26 27 27 27 25 24 23 23 22 21 21 22 21 23 24 24 24 24 24 24 23 23 23
21 18 16 15 14 12 11 11 9 9 9 8 8 8 8 8 8 9 10 10 9 8 8 8 7 8 9 9 9 9 9 10 11 12 12 12 11 11 10 10 10 9 9 9 11 12 12 13 14 14 15 15 16 18 18 19 20 22 22 23 24 26 27 28 28 28 27 26 25 25 24 23 23 23 23 23 24 23 23 23 23 24 25 24 24
23 20 18 17 15 14 13 12 11 11 11 10 9 9 8 9 9 9 10 10 11 12 11 10 10 9 9 9 9 9 9 9 10 10 11 11 10 10 9 9 9 9 9 9 11 12 12 13 14 14 14 15 16 17 17 17 19 19 19 20 22 23 24 26 26 25 25 25 24 24 23 23 23 24 23 23 23 22 22 23 24 25 25 24 24
24 22 20 18 17 16 15 14 13 13 12 11 11 10 10 11 10 10 9 8 9 9 10 10 10 9 9 8 8 8 9 9 9 9 9 9 9 9 8 7 7 7 7 9 11 13 13 14 15 15 15 15 16 16 16 17 18 18 18 19 20 21 22 22 23 23 23 24 25 25 25 25 25 25 24 23 23 23 24 24 24 24 24 24 25
24 23 21 20 20 18 17 15 15 13 12 11 10 10 10 9 9 9 9 9 8 8 8 9 10 9 8 8 8 9 9 9 9 9 9 9 9 8 8 7 6 5 6 9 12 13 14 14 15 15 15 16 16 17 17 17 18 18 19 20 21 22 22 22 22 23 24 25 26 26 27 26 25 24 24 23 23 23 23 24 23 23 23 24 25
24 22 21 20 20 19 18 17 16 14 13 12 11 10 9 8 8 9 10 9 9 10 10 11 11 10 10 10 11 11 11 11 11 11 10 10 10 9 9 9 9 8 7 9 11 13 15 16 16 16 16 17 17 18 18 18 19 19 20 21 22 22 22 22 23 24 24 25 26 26 26 26 25 24 24 23 23 23 23 24 24 24 25 24 23
23 22 20 19 19 19 18 17 16 15 14 12 11 10 9 8 9 9 9 10 11 11 12 12 11 9 9 11 13 13 13 13 12 12 11 10 9 9 9 11 12 12 12 11 12 13 14 15 16 16 17 17 17 18 18 19 19 20 20 21 22 22 22 23 23 24 24 24 25 25 25 25 25 24 24 24 24 25 25 25 24 25 25 24 22
22 21 19 18 18 17 17 16 15 14 14 13 11 11 10 10 10 10 10 11 12 12 13 13 13 11 12 14 15 14 14 12 11 9 9 8 8 8 9 10 11 12 13 14 14 14 15 15 16 17 17 18 18 18 18 19 19 19 20 20 21 22 22 23 23 23 23 24 24 25 25 25 25 25 24 25 25 25 25 25 24 24 24 24 22
21 20 19 17 16 16 16 15 14 14 14 13 12 12 11 11 10 10 10 11 11 12 12 13 14 14 16 17 16 15 14 13 11 11 11 11 11 11 11 10 11 12 13 14 14 14 14 14 14 15 15 16 16 17 17 18 19 19 19 20 20 21 21 22 22 22 22 23 23 24 24 24 25 25 25 25 26 25 24 24 24 23 23 22 21
21 19 18 17 16 15 15 14 14 14 13 13 12 11 11 10 10 9 9 9 10 10 10 11 12 13 14 16 16 17 17 17 17 17 17 15 14 13 13 12 13 13 14 14 14 14 14 14 14 14 14 14 14 15 15 16 17 18 18 19 20 20 20 20 21 21 21 22 23 23 24 24 25 25 25 25 26 25 24 23 23 22 22 21 20
21 19 17 16 16 15 14 14 13 13 12 12 11 11 10 10 9 9 8 8 8 8 9 9 10 10 12 13 14 16 17 17 17 17 17 16 15 14 14 13 14 14 14 15 15 15 16 16 16 15 15 15 15 16 16 16 16 17 17 17 18 20 20 20 20 21 21 22 23 23 24 24 24 24 24 25 25 25 24 23 22 22 21 21 20
20 19 17 16 15 14 13 13 12 12 11 11 10 10 10 10 9 8 7 7 6 7 7 7 8 8 9 10 10 11 12 12 13 13 14 14 14 14 14 13 13 14 14 15 16 16 16 17 17 16 16 16 17 17 18 18 17 17 17 17 18 19 20 20 20 21 21 22 23 23 24 25 24 24 24 24 24 23 23 22 22 21 20 20 19
19 18 17 15 14 13 12 13 12 11 10 10 10 10 10 9 8 7 6 6 5 6 7 7 8 8 8 9 9 9 9 9 10 11 12 12 13 13 13 13 13 14 14 15 15 16 17 17 17 17 17 17 18 18 19 19 18 18 18 18 18 19 20 20 20 21 21 22 23 23 24 24 23 23 23 23 22 22 22 21 21 19 19 18 18
17 17 16 14 13 12 12 11 11 10 10 9 9 9 8 8 7 6 6 6 5 6 7 8 9 9 9 9 9 9 9 9 10 10 11 11 12 12 13 13 13 14 14 14 14 16 17 17 18 18 18 18 19 19 19 19 18 17 18 18 18 19 20 20 21 21 21 21 22 23 23 23 22 22 22 21 21 21 20 20 20 19 19 18 17
15 15 14 12 11 11 11 10 9 9 9 8 7 7 6 6 5 5 5 5 5 6 7 8 9 10 10 10 10 10 10 10 10 10 10 11 11 12 12 13 14 14 14 15 15 16 17 19 19 19 19 19 19 19 19 18 17 16 17 17 18 19 20 20 21 21 20 21 21 22 21 21 21 20 20 20 20 20 20 20 20 19 18 17 17
13 13 12 11 10 10 9 8 8 8 7 6 6 5 5 4 4 4 4 4 5 6 6 7 8 8 9 9 10 9 9 9 10 10 10 11 11 12 12 13 14 15 15 15 16 16 17 18 19 19 19 19 18 19 18 17 16 15 15 16 17 19 19 20 20 20 20 20 21 21 20 20 20 19 19 19 19 20 20 20 20 19 18 17 17
11 11 10 10 9 8 8 7 6 6 5 5 4 4 4 3 3 3 3 4 4 5 5 6 7 7 8 8 8 9 9 10 10 10 11 11 11 12 13 13 14 14 14 15 15 16 16 16 17 18 18 18 18 18 17 17 16 16 16 16 16 17 18 18 19 19 19 19 19 19 19 19 19 19 19 19 19 19 19 19 19 18 18 17 17
10 9 8 8 7 7 6 5 5 4 4 3 3 3 3 2 2 3 3 3 4 4 5 5 6 6 7 7 8 9 9 10 10 11 11 12 12 13 14 15 15 15 15 15 15 15 15 15 16 17 17 18 18 18 17 16 16 16 16 16 16 16 16 16 16 17 16 16 15 16 16 17 18 17 17 17 18 18 18 18 18 17 17 17 16
8 7 7 6 6 5 5 4 4 3 3 2 2 2 2 2 2 2 2 3 3 4 5 5 6 6 7 8 9 9 9 10 10 11 12 13 14 15 15 16 16 16 16 15 15 15 15 15 15 16 17 17 17 17 17 17 17 16 16 16 15 14 14 14 14 14 13 12 11 11 12 14 15 15 16 16 17 17 17 17 17 17 16 16 16
6 6 6 5 5 4 4 3 3 2 2 1 1 1 1 1 1 2 2 3 3 4 4 5 6 7 8 9 9 10 10 10 11 12 13 14 15 15 15 15 15 15 16 16 16 15 15 15 15 15 16 16 17 17 17 17 17 17 16 16 15 14 13 13 12 12 11 10 9 9 10 11 12 13 14 15 15 16 16 16 16 16 15 15 15
5 5 4 4 4 3 3 2 2 1 1 0 0 0 1 1 1 2 3 3 4 4 5 6 6 7 9 10 10 11 11 12 12 13 14 14 14 14 14 14 14 15 15 16 16 16 16 15 15 15 16 16 17 17 17 17 16 16 16 15 14 13 12 12 12 11 11 10 9 9 9 10 11 12 13 13 14 15 15 16 15 15 15 15 15
4 4 4 3 3 3 2 1 1 0 0 0 1 1 1 2 3 3 4 5 6 6 6 7 8 9 9 10 11 12 12 13 13 14 14 14 14 14 14 15 15 15 15 16 16 17 16 16 15 16 16 16 17 17 17 16 16 15 15 14 13 12 11 11 11 10 10 10 9 9 9 10 10 11 12 13 13 14 15 15 15 15 15 15 14
Wind_Direction
233 235 236 236 239 241 243 246 248 251 253 254 256 257 258 260 260 260 260 259 258 258 257 256 253 250 246 243 241 239 239 239 240 241 240 239 236 234 234 231 226 224 224 222 220 219 220 221 225 226 221 216 212 210 210 210 211 212 213 213 211 210 209 206 204 194 191 200 206 206 204 201 204 212 221 233 242 243 242 241 243 247 249 256 263
234 238 240 241 243 246 248 251 252 254 256 256 258 260 261 263 264 264 263 262 262 260 260 259 257 253 249 245 242 239 239 239 241 242 240 239 237 232 230 230 229 225 222 220 219 219 219 219 222 220 214 211 211 212 213 211 209 208 209 211 211 211 212 210 209 197 182 187 195 197 197 198 205 216 226 234 239 239 238 236 238 243 246 254 260
246 248 249 250 251 253 254 256 257 258 260 261 262 263 265 266 266 266 266 266 265 263 263 261 259 254 249 245 243 241 240 241 244 245 244 242 239 234 230 230 231 230 226 224 220 218 218 217 216 213 208 209 212 214 215 212 211 212 212 214 215 215 215 213 210 202 186 183 190 194 196 200 207 219 229 234 235 236 235 231 234 237 243 254 259
261 260 259 259 259 260 260 261 261 262 263 265 266 266 268 268 268 268 269 269 268 266 264 261 258 254 248 245 243 240 239 241 243 243 244 245 242 238 234 231 230 229 227 225 222 221 221 217 214 212 211 210 211 212 212 211 213 215 217 218 218 219 217 212 212 210 197 188 193 199 203 207 212 220 228 231 232 233 232 231 233 235 242 256 263
268 267 266 265 264 264 264 264 266 266 267 267 268 268 268 267 266 267 269 270 269 269 267 263 258 254 250 249 246 242 243 243 241 242 248 249 245 242 239 235 231 227 224 224 224 224 222 218 216 217 215 212 210 210 212 214 216 217 219 221 221 220 218 213 213 216 207 198 197 200 207 212 215 221 227 229 231 232 231 233 235 236 244 257 267
269 266 265 264 264 262 262 263 264 265 267 268 269 269 269 269 267 266 267 269 269 270 270 269 265 260 257 255 252 248 247 243 243 250 255 252 247 243 240 237 233 229 225 224 224 222 220 219 221 221 217 212 210 211 213 215 217 218 221 223 222 220 217 213 211 213 211 206 201 199 204 211 215 221 226 229 232 234 234 238 241 242 245 255 265
270 267 268 267 266 265 264 264 264 263 264 265 267 269 270 272 274 273 272 270 269 272 274 273 271 272 271 268 263 260 258 256 255 255 253 250 249 246 241 237 234 231 227 224 222 221 220 221 222 220 216 213 213 215 215 216 218 221 224 224 220 217 214 211 209 208 207 204 201 201 205 209 215 221 227 230 234 237 238 242 246 246 246 255 264
273 272 274 276 278 279 278 277 276 273 272 273 275 276 273 269 268 270 273 272 269 271 274 273 271 272 273 271 269 268 265 262 260 256 254 252 250 246 242 238 234 231 228 226 224 222 220 220 220 219 219 219 221 222 220 220 221 223 224 222 217 213 210 207 205 205 203 201 200 201 204 208 214 220 224 221 223 230 233 236 244 249 250 256 267
276 276 280 288 294 295 295 298 297 289 283 285 290 294 292 282 270 264 266 270 272 271 272 272 269 269 270 270 269 266 261 258 258 258 258 254 249 245 241 238 235 231 227 225 224 221 218 218 220 222 223 223 225 225 225 227 228 226 222 217 212 209 206 204 203 200 199 201 201 201 204 211 215 214 215 215 219 227 230 230 239 248 254 261 272
276 278 286 296 301 304 308 312 309 298 288 288 295 303 307 303 291 278 268 267 272 275 276 277 277 276 275 274 273 269 266 264 264 263 261 256 251 246 240 236 234 230 226 224 223 220 216 218 221 223 224 224 225 227 229 232 234 231 225 218 211 205 202 201 201 198 198 200 203 205 206 214 219 216 216 221 223 226 226 225 233 244 256 267 277
278 284 293 302 309 311 311 311 311 304 294 294 301 304 303 302 299 292 282 273 270 271 274 277 280 281 280 278 276 274 272 271 268 266 262 257 251 246 241 237 233 230 227 226 224 220 216 218 221 222 222 224 226 230 232 233 231 229 228 223 215 208 204 201 199 198 200 202 206 209 209 216 222 221 220 224 224 225 226 227 234 241 248 259 269
279 286 294 301 305 300 302 315 325 322 309 304 303 300 298 298 294 289 287 282 277 276 279 282 284 284 282 280 278 276 274 274 271 268 263 257 251 246 241 238 234 230 228 225 224 221 217 218 221 222 224 226 229 230 229 228 227 227 228 225 217 212 210 210 206 203 204 205 207 211 214 218 223 223 223 224 223 223 226 230 236 239 239 244 251
271 282 290 292 281 282 298 317 331 326 318 305 297 297 296 294 296 296 293 291 291 289 290 293 295 292 288 285 283 281 279 278 274 270 265 259 253 247 242 239 236 233 229 226 223 220 217 217 220 224 226 228 228 228 225 224 225 226 226 223 217 214 214 216 215 215 215 212 211 216 220 221 224 228 229 227 223 220 222 229 236 237 238 245 253
264 280 293 286 253 275 297 313 328 334 334 319 301 300 302 300 305 307 304 301 301 297 297 299 300 299 297 293 290 288 286 284 281 275 270 263 256 250 245 241 238 235 232 227 222 218 218 221 225 228 228 226 225 225 223 223 224 224 221 218 216 215 215 215 216 221 223 219 219 227 229 227 231 238 236 230 227 226 229 236 239 239 243 250 261
254 255 244 212 219 250 286 305 327 339 342 339 323 310 315 317 316 317 318 319 316 310 307 305 304 304 303 300 296 295 292 289 286 281 276 270 262 254 247 242 239 235 232 227 222 221 225 228 231 231 229 228 228 225 223 224 224 221 217 215 215 216 216 216 217 221 224 223 226 233 234 233 238 242 240 234 232 235 240 244 245 245 249 255 261
222 208 189 166 178 197 246 280 299 313 329 352 343 327 329 327 323 326 331 333 330 326 322 318 314 311 309 306 302 301 299 295 291 287 282 274 265 254 246 241 238 235 232 227 224 225 229 231 231 230 230 232 231 228 227 226 222 216 213 212 214 215 216 217 218 221 224 226 229 232 233 236 240 241 240 236 234 238 240 239 241 242 243 252 261
129 133 142 147 162 174 203 246 275 292 308 331 331 331 337 336 340 345 344 342 341 339 335 330 325 322 320 317 312 307 306 303 298 294 287 275 262 251 242 238 235 233 230 228 227 229 232 233 232 231 231 233 232 229 227 223 217 212 210 210 212 214 216 217 218 221 225 228 231 232 233 237 239 239 238 236 237 240 235 232 237 238 235 243 257
101 100 107 130 146 153 173 205 237 284 315 330 331 335 338 336 342 347 344 344 345 345 344 339 335 334 331 327 322 315 312 310 306 303 295 278 261 248 240 235 234 234 234 236 238 239 238 237 235 234 236 236 234 232 228 221 215 211 209 208 210 212 214 215 216 219 222 226 229 231 232 236 238 238 239 240 242 242 236 236 242 240 232 233 243
112 116 114 129 142 148 160 166 149 138 8 360 355 354 353 347 345 342 339 342 344 345 348 345 342 342 339 335 331 324 320 318 317 315 307 287 265 250 242 238 237 240 242 244 245 244 242 241 239 239 241 242 239 236 231 223 216 213 211 208 209 213 216 216 216 216 219 222 226 229 231 234 237 238 240 242 243 243 243 244 246 242 236 238 241
118 136 140 136 140 144 151 153 144 140 113 49 40 25 15 11 5 357 352 351 350 349 350 347 345 344 342 341 338 330 326 325 322 321 316 298 275 259 250 246 246 247 247 246 246 245 243 242 242 242 243 244 244 241 234 225 219 217 214 211 214 218 219 217 218 219 220 223 226 229 232 234 236 238 240 240 239 242 247 248 247 244 242 244 241
112 131 131 126 131 134 137 145 138 125 119 95 78 61 39 26 18 14 6 359 355 353 352 350 347 345 342 341 340 337 335 333 330 327 323 310 292 273 262 259 257 255 254 252 250 249 248 248 248 247 246 246 246 242 235 228 222 220 219 218 220 223 222 221 221 221 222 224 227 229 230 232 236 239 240 240 240 243 248 250 249 247 246 246 243
107 116 119 119 124 124 121 125 120 107 108 105 93 77 60 44 34 29 20 9 3 357 352 349 346 343 341 341 341 342 342 340 340 338 332 322 306 285 272 268 264 259 257 255 253 253 253 253 252 251 248 249 247 241 235 230 225 223 223 223 223 224 226 227 225 222 221 223 225 226 228 232 237 239 241 242 243 245 248 249 250 250 250 250 248
116 115 119 117 116 116 110 109 108 102 100 97 92 83 69 59 51 44 34 21 12 4 358 355 350 346 345 345 345 345 346 345 345 344 340 335 323 304 286 276 269 263 260 259 259 259 258 256 256 254 251 249 246 240 234 230 227 225 225 226 227 228 228 227 226 223 221 220 222 226 231 235 238 239 241 244 247 249 249 249 251 252 251 251 249
126 119 120 117 114 113 109 104 99 94 90 87 87 82 73 69 64 54 48 39 28 21 11 3 360 355 351 349 349 349 348 347 345 345 344 341 334 323 306 288 275 268 265 265 266 267 266 264 263 262 257 252 247 241 234 230 228 228 228 229 230 229 227 224 222 219 217 217 222 228 234 237 238 241 246 250 253 254 253 252 252 250 248 248 248
124 117 120 121 120 121 120 115 109 103 97 91 91 88 79 77 72 62 58 51 40 34 23 10 6 1 354 350 350 350 350 347 346 347 346 343 340 332 318 299 282 273 271 271 272 274 275 274 272 269 263 254 246 241 236 231 230 231 233 232 230 229 227 224 220 216 216 219 225 232 237 240 243 247 254 258 258 256 253 250 247 244 243 244 245
120 116 112 110 110 111 114 115 112 111 110 102 96 91 86 85 81 72 69 64 54 45 35 21 11 0 352 349 348 347 348 345 343 344 343 340 339 335 323 305 283 271 269 270 272 274 276 276 274 270 264 255 245 238 235 233 232 234 237 236 232 230 228 225 222 221 223 227 231 237 241 244 249 254 259 259 257 254 250 246 242 240 240 242 245
120 116 111 106 104 103 102 104 105 104 101 95 90 86 81 81 81 75 68 61 56 50 40 28 16 1 352 351 347 343 343 341 339 340 339 338 338 336 327 310 286 267 263 265 267 270 273 273 270 267 263 256 246 238 235 235 233 234 237 237 234 234 234 233 234 235 236 238 241 244 246 249 254 257 257 256 255 253 250 246 242 241 240 241 245
121 116 114 113 110 104 100 100 102 101 94 87 83 79 74 68 65 63 56 46 43 41 34 27 21 9 360 353 344 340 341 343 344 344 343 342 341 339 335 324 302 278 267 265 264 266 267 266 263 260 254 249 244 238 236 237 236 235 236 237 237 239 240 241 242 243 245 246 247 248 250 253 255 256 256 255 255 254 251 247 244 242 240 239 242
122 117 115 115 113 110 106 102 101 99 92 84 79 75 72 63 53 49 40 27 18 12 9 7 0 353 349 345 340 339 341 343 344 345 347 347 346 343 340 334 321 300 282 271 265 263 262 257 253 251 247 244 242 239 237 238 238 237 237 237 239 241 242 243 244 245 246 247 247 249 252 255 256 257 256 256 256 255 252 249 244 241 239 238 240
121 116 114 111 110 111 108 102 100 96 87 82 80 78 77 71 60 47 34 23 15 9 8 5 356 347 344 343 341 339 338 338 339 343 347 348 345 343 339 335 327 313 291 273 263 257 253 249 247 245 243 241 239 238 238 238 239 239 239 237 237 238 240 242 244 246 248 249 251 253 255 255 255 254 254 254 255 255 252 248 245 241 239 238 240
119 114 112 109 108 108 104 99 98 93 86 80 77 76 78 75 68 61 55 51 50 50 46 38 30 17 3 356 352 343 337 337 340 344 348 348 345 342 337 332 326 316 297 279 268 260 254 251 250 248 246 244 243 243 243 243 243 244 243 241 239 239 240 243 245 247 248 250 252 254 254 253 253 255 255 256 256 255 252 248 245 242 239 239 240
119 115 114 112 110 107 103 99 96 92 88 83 77 72 72 69 64 62 63 60 58 58 56 49 44 38 25 13 7 359 351 346 343 343 345 346 345 343 339 333 327 318 303 284 274 271 268 266 264 263 262 259 259 261 259 256 256 255 253 251 250 249 249 250 251 252 252 253 255 256 255 256 258 259 259 258 256 254 250 245 242 241 239 239 240
124 122 122 120 116 112 109 105 101 95 91 86 81 75 70 64 59 59 66 72 71 68 62 48 39 36 34 29 20 11 1 355 350 348 347 345 344 342 339 332 323 312 291 274 272 277 279 278 277 278 278 276 277 279 277 273 272 271 268 266 265 265 266 266 265 263 261 260 260 261 260 261 261 259 259 257 254 251 248 245 242 239 237 237 239
129 129 130 129 125 121 118 115 111 107 102 97 91 86 78 69 63 61 64 67 66 62 52 39 31 31 32 30 24 16 7 1 358 355 352 351 351 346 337 329 323 309 284 273 277 283 287 288 287 287 287 286 285 285 284 282 281 278 275 275 274 274 275 274 271 270 268 266 264 263 262 262 261 259 258 256 253 250 247 244 241 236 234 235 238
130 129 131 131 128 125 124 122 120 117 112 106 100 93 86 78 70 62 54 46 39 30 25 25 28 27 23 18 17 15 10 6 5 2 358 357 355 349 340 336 332 326 310 293 288 289 291 293 294 294 295 294 293 291 289 287 285 283 281 280 280 279 278 276 274 273 271 269 267 266 266 265 263 261 259 256 252 249 247 244 241 237 236 237 238
128 127 127 127 126 125 124 124 121 118 114 108 102 95 86 77 69 60 50 43 36 27 21 21 24 24 16 11 11 12 11 10 10 9 7 7 3 357 353 346 337 330 325 317 309 303 300 300 301 300 300 299 297 295 294 291 289 288 286 284 283 282 279 277 276 275 272 270 270 269 268 267 265 263 260 256 253 250 248 246 243 240 238 238 237
125 124 122 122 123 122 121 119 116 113 110 105 100 93 83 74 65 56 48 41 34 26 20 16 13 11 9 8 9 10 11 12 12 11 13 17 17 15 9 357 342 333 328 324 319 314 309 307 307 305 303 301 300 298 297 295 293 292 290 288 286 283 281 280 278 277 274 273 272 271 269 268 266 263 257 254 252 251 249 246 243 241 240 238 237
122 121 120 121 121 119 116 113 110 108 105 100 95 90 83 76 68 58 50 42 33 27 23 18 14 12 8 4 3 5 5 6 8 10 13 16 16 14 10 2 354 348 342 337 334 329 325 324 322 318 314 312 310 308 305 302 299 297 294 292 289 286 285 283 281 279 277 276 275 274 272 269 267 263 257 252 251 251 249 246 242 240 239 237 234
121 120 120 120 119 115 112 110 108 106 102 98 95 92 87 80 73 62 53 46 39 33 29 24 22 18 9 2 360 0 2 7 10 11 11 12 11 9 4 359 356 352 347 345 344 342 340 340 338 335 332 329 327 324 320 315 311 306 300 295 292 289 287 286 284 283 282 280 279 278 275 272 269 265 259 254 252 251 250 247 243 239 237 236 235
120 119 119 118 116 113 112 110 107 104 101 98 95 92 88 82 76 68 59 52 47 41 34 27 22 15 6 2 1 1 4 9 12 10 8 8 7 6 5 2 357 352 347 343 341 338 336 334 332 332 331 330 327 326 323 320 317 313 307 302 296 292 291 290 288 286 285 284 283 281 278 275 272 267 260 255 253 251 250 248 246 242 239 238 238
120 119 118 115 113 113 112 109 105 101 100 99 96 93 91 86 82 77 69 59 51 41 32 25 17 8 1 360 0 1 3 6 5 3 4 3 0 359 360 357 352 347 342 339 336 333 331 329 329 328 328 325 323 321 319 316 315 313 311 307 303 298 295 293 291 290 289 288 286 284 281 278 273 267 262 259 256 253 249 247 246 243 240 240 240
120 119 117 114 115 114 110 106 104 102 101 100 96 93 92 88 84 78 69 58 45 28 17 11 6 2 360 357 356 358 0 0 358 356 356 354 352 352 351 348 344 341 337 333 332 329 327 326 325 323 322 320 319 318 317 316 314 312 310 308 305 301 299 298 297 296 295 292 289 286 283 279 274 268 264 261 257 252 248 245 243 240 239 239 239
117 116 114 114 113 110 105 104 105 103 100 98 94 90 87 83 77 67 55 45 32 15 6 1 355 355 356 355 352 353 355 356 355 353 351 348 346 344 342 338 336 334 331 329 328 326 323 321 320 317 315 314 312 312 312 311 310 308 305 304 302 300 299 299 300 299 298 295 293 290 285 281 276 270 265 260 255 249 246 243 240 238 238 238 238
113 111 112 111 108 104 102 102 101 97 94 92 91 87 81 74 66 53 38 31 21 7 359 353 348 347 348 348 349 351 353 353 352 349 346 342 338 335 334 332 329 327 325 324 323 321 319 319 318 315 313 312 311 310 310 308 305 301 299 299 299 297 297 299 300 301 301 299 295 292 288 283 278 271 264 258 251 245 242 240 237 236 236 235 235
109 108 109 108 105 103 101 96 91 91 90 90 88 83 71 60 54 41 26 16 6 356 351 346 342 340 341 343 346 349 349 346 343 339 337 334 332 330 329 327 325 324 322 321 319 319 319 320 320 319 318 317 316 315 314 312 307 300 296 296 297 296 297 299 300 300 300 297 295 293 289 283 277 269 262 256 249 242 240 238 236 234 233 232 233
109 109 109 108 108 106 101 95 91 90 85 80 77 72 64 54 45 32 16 3 351 344 340 338 335 334 336 338 340 340 337 334 333 333 333 332 331 330 328 327 325 323 321 320 320 321 322 322 322 322 322 321 321 320 318 315 311 304 299 297 295 294 295 296 295 294 292 290 289 290 286 281 275 268 260 254 247 242 239 237 235 233 233 233 236
112 112 112 112 111 108 102 97 93 89 81 74 68 64 58 45 29 16 0 348 341 336 332 331 329 329 331 331 331 330 329 328 329 331 330 330 329 329 329 328 326 323 323 323 324 325 326 326 324 323 322 322 322 321 319 318 314 309 305 301 298 295 296 295 293 292 290 287 285 285 282 277 272 265 258 251 245 240 238 236 235 235 236 236 239
115 115 114 113 110 107 102 97 90 87 84 75 62 54 41 20 11 1 342 331 332 330 326 325 323 321 321 323 324 325 326 325 326 327 326 325 326 327 326 326 325 325 325 327 328 329 330 329 326 324 322 321 321 321 321 320 317 314 310 307 302 300 299 299 296 295 293 289 288 286 281 275 269 263 256 250 244 240 239 238 237 237 239 240 239
114 113 113 110 105 101 98 93 86 83 77 64 57 53 19 345 342 336 320 311 312 315 315 316 316 317 319 321 323 325 325 325 325 324 323 322 323 323 323 324 325 325 325 327 329 331 332 330 328 325 324 322 321 321 320 319 317 315 313 311 308 303 302 301 299 297 294 292 293 292 284 275 268 261 256 252 247 244 242 241 240 240 240 240 240
111 106 105 102 99 97 94 89 84 83 71 31 346 346 334 314 310 313 308 305 307 310 311 311 314 317 319 321 322 323 322 321 320 320 320 320 321 322 323 324 325 326 326 327 329 331 331 331 329 327 326 324 322 321 320 318 316 313 312 311 309 305 302 300 299 298 296 294 294 291 282 273 266 259 255 251 247 244 242 241 240 240 239 239 240
103 98 94 91 90 92 92 93 97 158 244 276 301 316 314 308 308 311 309 307 311 313 313 314 316 317 318 319 319 318 317 317 317 317 318 320 322 323 323 324 325 325 326 327 328 329 330 330 329 328 327 325 323 322 321 319 316 314 312 311 308 305 303 301 298 297 296 294 291 286 278 270 263 258 253 249 246 244 243 241 240 240 240 239 239